Regional Weather Roundup
Issued by NWS

Home | Current Version | Previous Version | Graphics & Text | Print | Product List | Glossary On
Versions: 1 2 3 4 5 6 7 8 9 10 11 12 13 14 15 16 17 18 19 20 21 22 23 24 25 26 27 28 29 30 31 32 33 34 35 36 37 38 39 40 41 42 43 44 45 46 47 48 49 50
000
ASUS43 KIND 050409
RWRIN

WEATHER ROUNDUP FOR INDIANA
NATIONAL WEATHER SERVICE INDIANAPOLIS IN
1200 AM EDT TUE MAY 05 2015

NOTE: "FAIR" INDICATES FEW OR NO CLOUDS BELOW 12,000 FEET WITH NO
SIGNIFICANT WEATHER AND/OR OBSTRUCTIONS TO VISIBILITY.

* - STATION DOES NOT REPORT WEATHER SUCH AS PRECIPITATION OR FOG.

+ - STATION NOT QUALITY CONTROLLED BY THE NATIONAL WEATHER SERVICE.
    USE DATA WITH CAUTION...ESPECIALLY DEWPOINT AND RELATIVE
    HUMIDITY OBSERVATIONS.

INZ001>003-010>013-019-020-050500-
NORTHWEST INDIANA

CITY           SKY/WX    TMP DP  RH WIND       PRES   REMARKS
GARY /AIRPORT/ MOCLDY    52  46  79 NE3       30.17F
KNOX *+        CLOUDY    61  52  72 E6        30.16F
LA PORTE +     CLOUDY    63  57  82 NE3       30.18F
MICHIGAN CITY+ CLOUDY    59  50  72 CALM      30.18S
MONTICELLO +   MOCLDY    61  60  97 CALM      30.15F
VALPARAISO     MOCLDY    59  55  87 NE6       30.17F

$$

LMZ046-743>745-050500-
SOUTHERN LAKE MICHIGAN

STATION/POSITION TIME  TEMP    WIND        PRES    WAVE
                       AIR SEA DIR/SP/G            HT
                 (UTC) (F)     (DEG/KT/KT) (MB)    (FT)
BURNS HARBOR     0400   53      70/  8/  9 1022.0F
MICHIGAN CITY    0400   54      30/  8/  9   N/A
5NW MICH CITY    0400   51 50   70/  6/  8   N/A     1

$$

INZ004-005-014>016-021>024-050500-
NORTH CENTRAL INDIANA

CITY           SKY/WX    TMP DP  RH WIND       PRES   REMARKS
GOSHEN         PTCLDY    60  57  89 NE3       30.18F
LOGANSPORT +   MOCLDY    63  61  94 E3        30.17S
PERU/GRISSOM   CLOUDY    63  61  96 SE5       30.16S
ROCHESTER +    MOCLDY    64  64 100 CALM      30.18S
SOUTH BEND     CLOUDY    63  55  75 E3        30.18F
WARSAW +       MOCLDY    61  61 100 CALM      30.19S FOG

$$

INZ006>009-017-018-025>027-050500-
NORTHEAST INDIANA

CITY           SKY/WX    TMP DP  RH WIND       PRES   REMARKS
ANGOLA *+      PTCLDY    59  55  88 CALM      30.20S
AUBURN +       CLOUDY    63  59  88 CALM      30.20S
FORT WAYNE     CLOUDY    61  60  97 CALM      30.19F
HUNTINGTON +   LGT RAIN  61  60  97 CALM      30.18F

$$

INZ028-029-035-036-043>045-051>053-050500-
WEST CENTRAL INDIANA

CITY           SKY/WX    TMP DP  RH WIND       PRES   REMARKS
CRAWFORDSVL +  CLOUDY    61  54  78 SE7       30.16F
GREENCASTLE +  PTCLDY    61  55  82 SE5       30.18S
LAFAYETTE      CLOUDY    60  60 100 E5        30.15S FOG
TERRE HAUTE    PTCLDY    63  58  83 CALM      30.15S

$$

INZ030>032-037>040-046>048-054>057-064-065-050500-
CENTRAL INDIANA

CITY           SKY/WX    TMP DP  RH WIND       PRES   REMARKS
CP ATTERBURY + CLOUDY    63  59  88 W3        30.20R
FISHERS *+     CLOUDY    61  61 100 SE5       30.18F
FRANKFORT +    MOCLDY    62  62 100 E9        30.18F
GREENWOOD *+   CLOUDY    64  61  88 E6        30.19F
INDIANAPOLIS   MOCLDY    64  57  78 SE8       30.16F
-EAGLE CREEK   PTCLDY    62  58  86 SE5       30.17F
KOKOMO *+      CLOUDY    63  61  94 S5        30.17S
MARION +       CLOUDY    61  59  94 SE3       30.19R
MT COMFORT *+  CLOUDY    64 N/A N/A SE9       30.19F
SHELBYVILLE    CLOUDY    66  61  84 E9        30.18F HAZE
ZIONSVILLE +   CLOUDY    63  57  82 SE3       30.18F

$$

INZ033-034-041-042-049-050-058-059-050500-
EAST CENTRAL INDIANA

CITY           SKY/WX    TMP DP  RH WIND       PRES   REMARKS
MUNCIE         LGT RAIN  62  59  90 SE6       30.18F

$$

INZ060-061-067>069-081>083-085>088-050500-
SOUTHWEST INDIANA

CITY           SKY/WX    TMP DP  RH WIND       PRES   REMARKS
EVANSVILLE     CLEAR     70  56  61 SW5       30.18S
HUNTINGBURG *+ CLEAR     70  54  56 S5        30.19S
WASHINGTON +   CLEAR     65  53  64 S8        30.16S

$$

INZ062-063-066-070>080-084-089>092-050500-
SOUTH CENTRAL AND SOUTHEAST INDIANA

CITY           SKY/WX    TMP DP  RH WIND       PRES   REMARKS
BLOOMINGTON    CLEAR     71  55  56 S10       30.17S
MADISON *+     PTCLDY    63  57  82 CALM      30.22S
NORTH VERNON + CLOUDY    64  64 100 S3        30.19S
SEYMOUR +      PTCLDY    63  55  77 CALM      30.18S

$$



USA.gov is the U.S. government's official web portal to all federal, state and local government web resources and services.